979  
ASUS43 KGLD 180959  
RWRGLD  
 
GOODLAND FORECAST AREA HOURLY WEATHER ROUNDUP  
NATIONAL WEATHER SERVICE GOODLAND KS  
300 AM MST SAT NOV 18 2017  
   
..OFFICIAL OBSERVATIONS
 
 
 
CITY SKY/WX TMP DP RH WIND PRES REMARKS
 
GOODLAND KS CLOUDY 39 34 82 NW29G44 29.91R  
HILL CITY KS LGT RAIN 42 40 92 N23G31 29.84R  
IMPERIAL NEB CLOUDY 39 36 89 NW18 29.95R  
MCCOOK NEB LGT RAIN 39 37 92 NW15 29.89R  
AKRON CO CLOUDY 33 24 69 NW18 30.03R  
BURLINGTON CO CLOUDY 37 31 78 NW23G41 29.96R  
LIMON CO PTCLDY 29 25 85 N28G38 30.05R WCI 14  

 
   
..UNOFFICIAL OBSERVATIONS
 
 
 
CITY SKY/WX TMP DP RH WIND PRES REMARKS
 
LENORA KS N/A 39 32 76 N12 N/A  
NORTON KS DRIZZLE 37 34 87 NW16 29.84  
SHARON SPRINGS N/A 40 36 85 NW20G26 N/A  
TRENTON NEB N/A 38 32 79 N10 N/A  
KIT CARSON CO N/A 37 29 73 MISG N/A  
YUMA CO CLOUDY 34 28 80 NW23G29 30.00R  

 
 
 
CLICK HERE TO GO TO PREVIOUS BULLETINS.

The Nexlab KS Page
The Nexlab CO Page
The Nexlab NE Page Main Text Page